Location: Hradec Kralove
(50.2170°N, 15.8330°E)
Time: 10:09:57
(UTC+01:00)

ISS - Pass Details

Date: 17 February 2026
Orbit: 416 x 426 km, 51.6° (Epoch: 9 March)

Event Time Altitude Azimuth Distance (km) Brightness Sun altitude
Exits shadow 05:39:29 20° 229° (SW) 1,029 -2.2 -14.2°
Maximum altitude 05:41:35 56° 156° (SSE) 501 -3.3 -13.8°
Drops below altitude 10° 05:44:52 10° 77° (ENE) 1,495 0.3 -13.3°
Sets 05:46:59 0° 73° (ENE) 2,359 1.5 -13.0°
